Погода в Сеймчане

Погода в Сеймчане : погода сейчас, прогноз погоды и архив. Всё, что Вы хотите узнать о погоде в Сеймчане!

Хотите узнать прогноз погоды в Сеймчане? Тогда Вам сюда: Погода в Сеймчане

Поиск расширенной информации на нашем сайте:

Другие новости

Новости СМИ2

Главная страница сайта

Новости сайта

03.07.2017

Напоминаем, что на нашем специализированном сайте Метеоцентр.Азия вы можете получить высокодетализированные автоматические прогнозы погоды по пунктам России, СНГ и мира в авиационном формате (включающие направление и скорость ветра, видимость, явления погоды, количество и форму облачности, нижнюю и верхнюю границу облачности).

Рекомендуем: Если плохие окна необходимо грамотно выбрать нащельник со склада.

Погода в Сеймчане - сегодня

Время (UTC), дата Ветер
(°,м/с) 
Видим.   Явления Облачность Т
(°С)
Тd
(°С)
f(%) Тe
(°С)
Pmin
(гПа)
dP
(гПа)
Po
(мм)
O2
(г/м3)
Тmin Tmax R s Состояние
почвы
09 18.07.17 010 (С) 10 км  слаб. ливневой дождь  10/6 600 м кучево-дожд., средняя 
[Cb calv|Ac und]
+13 +11.9 93 +17  1000.9  -0.2  732  279    +18.8     
12 18.07.17 020 (С) 20000 м  слаб. ливневой дождь  10/6 600 м кучево-дожд., средняя 
[Cb calv|Ac und]
+12.2 +11.4 95 +17  1001  732  280           
15 18.07.17 060 (СВ) 20000 м  {ливн. осадки}  10/6 600 м кучево-дожд., средняя 
[Cb calv|Ac und]
+12.2 +11.5 95 +17  1000.4  -0.5  732  280           
18 18.07.17 тихо ()   20000 м  {ливн. осадки}  10/6 300 м кучево-дожд., средняя 
[Cb calv|Ac und]
+11.8 +11.2 96 +15  1001.1  0.6  732  281           
21 18.07.17 010 (С) 10 км    10/10 300 м 
[St]
+12.3 +10.8 91 +16  1002.3  1.3  733  281  +11.6      мокрая 
00 19.07.17 360 (С) 20000 м    10/10 330 м 
[St]
+13.8 +11.1 84 +17  1002.3  0.1  733  279           
03 19.07.17 350 (С) 20000 м    9/6 1000 м кучево-дожд., средняя 
[Cb calv|Ac trans]
+15.4 +11.9 80 +20  1002.1  0.1  733  277           
06 19.07.17 050 (СВ) 20000 м    9/3 1000 м средняя 
[Sc|Ac trans]
+16.5 +12.8 79 +23  1001.8  -0.2  733  276           
09 19.07.17 060 (СВ) 20000 м    9/1 1000 м средняя, верхняя 
[Sc|Ac trans|Ci fib]
+15.4 +11.9 80 +20  1002.4  0.5  733  277    +17.5       
12 19.07.17 070 (В) 20000 м    8/0 средняя, верхняя 
[Ac trans|Ci fib]
+10.2 +9.5 95 +12  1004  1.1  734  283           
15 19.07.17 270 (З) 20000 м    8/0 средняя, верхняя 
[Ac trans|Ci fib]
+6.9 +6.3 96 +8  1005.4  1.1  735  288           
18 19.07.17 300 (СЗ) 4000 м  дымка  6/0 средняя, верхняя 
[Ac trans|Ci fib]
+7.5 +7.1 97 +8  1006.3  0.9  736  287           
21 19.07.17 210 (ЮЗ) 0500 м  туман  6/0 средняя, верхняя 
[Ac trans|Ci fib]
+10 +9.7 98 +12  1007.1  737  284  +4.9        влажная 
00 20.07.17 190 (Ю) 20000 м  {туман}  8/3 1000 м средняя, верхняя 
[Sc|Ac trans|Ci fib]
+21 +11.5 55 +25  1005.9  -0.2  736  273           
03 20.07.17 270 (З) 20000 м    9/4 1000 м средняя, верхняя 
[Sc|Ac trans|Ci fib]
+23.9 +10.5 43 +26  1004.7  -0.9  736  271           
06 20.07.17 200 (Ю) 20000 м    9/4 1000 м средняя, верхняя 
[Sc|Ac trans|Ci fib]
+23.8 +8.3 37 +24  1004.6  0.1  736  271           
09 20.07.17 180 (Ю) 20000 м    9/5 1000 м кучево-дожд., средняя, верхняя 
[Cb calv|Ac trans|Ci fib]
+21.1 +7.7 42 +21  1005.6  0.7  736  274    +25       
12 20.07.17 170 (Ю) 20000 м    9/6 1000 м кучево-дожд., средняя, верхняя 
[Cb calv|Ac trans|Ci fib]
+18.2 +7.7 50 +19  1006.8  737  277           
15 20.07.17 190 (Ю) 20000 м    10/5 1000 м кучево-дожд., средняя, верхняя 
[Cb calv|Ac trans|Ci fib]
+16 +6.3 53 +16  1007.8  0.8  737  280           
18 20.07.17 тихо ()   20000 м    9/3 1000 м средняя, верхняя 
[Sc|Ac trans|Ci fib]
+13.8 +9.2 74 +14  1008.1  0.1  737  281           
21 20.07.17 170 (Ю) 20000 м    9/3 1000 м средняя, верхняя 
[Sc|Ac trans|Ci fib]
+17.9 +8.7 55 +18  1008.1  0.4  738  277  +12.6        влажная 
00 21.07.17 200 (Ю) 20000 м    10/6 1000 м кучево-дожд., средняя 
[Cb calv|Ac und]
+17.5 +9.2 58 +19  1008.3  0.2  738  278           
03 21.07.17 150 (ЮВ) 20000 м  в посл. час ливневой дождь  10/6 1000 м кучево-дожд., средняя 
[Cb calv|Ac und]
+16.5 +11.1 70 +21  1008.7  0.3  738  278           
06 21.07.17 360 (С) 20000 м  слаб. ливневой дождь  10/6 1000 м кучево-дожд., средняя 
[Cb calv|Ac und]
+15.4 +13.3 87 +23  1008.5  -0.3  738  279           
09 21.07.17 030 (СВ) 20000 м  в посл. час ливневой дождь  9/8 1000 м кучево-дожд., средняя 
[Cb calv|Ac trans]
+14.8 +13.8 94 +23  1008.3  -0.3  738  279    +18.8  0.6     
Время (UTC), дата Ветер
(°,м/с) 
Видим.   Явления Облачность Т
(°С)
Тd
(°С)
f(%) Тe
(°С)
Pmin
(гПа)
dP
(гПа)
Po
(мм)
O2
(г/м3)
Тmin Tmax R s Состояние
почвы

Для получения пояснительной информации подведите курсор к названию столбца.

ПОГОДА в Сеймчане - архив

Всё, что Вы хотите узнать о погоде в Сеймчане - удобно и подробно!

Выберите нужную дату (начиная с 1 января 2015* года) и нажмите кнопку "Найти".
Будут отображены архивные сводки погоды по пункту Сеймчан, начиная с указанной даты.


Отображать данные в формате CSV (для использования в таблицах Excel)


Внимание! Наш архив погоды предназначен исключительно для личного некоммерческого использования в познавательных целях. Если Вам необходимы официальные справки о состоянии погоды (для производственных, юридических, коммерческих и т.п. целей), обращайтесь в органы Росгидромета.

*Примечание: данная дата относится к архиву по метеостанциям СССР (Россия, СНГ, Балтия).
Архив по метеостанциям Зарубежной Европы и Азии (кроме Китая) хранится 10 дней, по другим регионам земного шара (Китай, Африка, Америка, Австралия, Океания) - 1 день.

Сеймчан - район местоположения метеостанции


Название, широта, долгота, высота метеостанции:
Сеймчан 62.9°ш. 152.4°д. 205 м над ур. моря [Российская Федерация]

Дополнительная информация

В oтличие oт бoльшинства пoгoдных сайтoв мы публикуем пoдрoбную метеoинфoрмацию в детальнoм прoфессиoнальнoм фoрмате.

Характеристики температуры и влажнoсти вoздуха измеряются на высoте 2 м в тени вдали oт зданий и деревьев.
Скoрoсть ветра измеряется на высoте 10 м (на урoвне рoста челoвека скoрoсть ветра ниже в 1.5-2 раза). Если метеoстанция нахoдится в гoрoде или в лесу, тo скoрoсть ветра занижена на 2-4 м/с пo сравнению с oткрытым местoм. Скoрoсть ветра над акватoриями крупных рек и oзёр, а также на вершинах хoлмoв на 2-5 м/с выше, чем в oбычных услoвиях.
Атмoсфернoе давление в разных тoчках местнoсти мoжет значительнo oтличаться oт давления на метеoстанции, в зависимoсти oт услoвий рельефа (при пoдъёме на 10 м давление пoнижается примернo на 1 мм рт.ст.).